649  
ASUS41 KBOX 180910  
RWRBOX  
 
REGIONAL WEATHER ROUNDUP  
NATIONAL WEATHER SERVICE BOSTON/NORTON MA  
500 AM EDT THU OCT 18 2018  
 
NOTE: "FAIR" INDICATES FEW OR NO CLOUDS BELOW 12,000 FEET WITH NO  
SIGNIFICANT WEATHER AND/OR S TO VISIBILITY
.  
 
MAZALL-181000-  
EASTERN MASSACHUSETTS  
 
CITY SKY/WX TMP DP RH WIND PRES REMARKS
 
BOSTON FAIR 40 25 55 W15G22 30.07R WCI 32  
BEVERLY MIX PCPN 36 29 75 W7 30.04R WCI 30  
LAWRENCE MOCLDY 38 29 70 W8 30.07R  
BEDFORD FAIR 37 24 59 W7 30.06R WCI 32  
BLUE HILL N/A 34 24 67 W15G29 30.03R WCI 24  
NORWOOD FAIR 40 25 55 W10 30.07R  
MARSHFIELD FAIR 39 27 60 VRB6G14 30.06R  
PLYMOUTH FAIR 41 22 46 W15G25 30.06R  
TAUNTON FAIR 40 25 55 W3 30.08R  
NEW BEDFORD FAIR 41 25 53 NW13G22 30.07R  

 
 
MAZALL-181000-  
CAPE COD AND THE ISLANDS  
 
CITY SKY/WX TMP DP RH WIND PRES REMARKS
 
FALMOUTH FAIR 39 23 52 NW21G28 30.07R WCI 29  
HYANNIS FAIR 41 25 53 W12G21 30.03R  
CHATHAM FAIR 42 25 50 W10G24 30.03R  
PROVINCETOWN CLOUDY 42 30 62 NW26G40 30.03R WCI 32  
NANTUCKET FAIR 44 22 41 NW22G35 30.05R  
MARTHAS VNYRD FAIR 43 26 51 W14G25 30.08R  

 
 
MAZALL-181000-  
CENTRAL AND WESTERN MASSACHUSETTS  
 
CITY SKY/WX TMP DP RH WIND PRES REMARKS
 
WORCESTER FAIR 34 20 56 W21G30 30.04R WCI 22  
FITCHBURG FAIR 34 23 64 W10 30.08R WCI 26  
ORANGE FAIR 35 23 61 NW9 30.10R WCI 28  
SPRINGFIELD FAIR 38 19 47 NW12G23 30.10R WCI 30  
WESTFIELD FAIR 38 19 46 NW15G36 30.12R WCI 29  
NORTH ADAMS FLURRIES 33 22 63 W14 30.13R WCI 23  
PITTSFIELD CLOUDY 33 20 58 NW15G21 30.12R WCI 23  

 
 
RIZALL-181000-  
RHODE ISLAND  
 
CITY SKY/WX TMP DP RH WIND PRES REMARKS
 
PROVIDENCE FAIR 40 26 57 W9 30.10R  
NEWPORT FAIR 42 25 50 NW14G25 30.09R  
BLOCK ISLAND FAIR 43 27 53 NW13G26 30.14R  
SMITHFIELD FAIR 36 25 64 NW6 30.08R WCI 31  
WESTERLY FAIR 41 28 60 W5 30.13R  

 
 
CTZALL-181000-  
CONNECTICUT  
 
CITY SKY/WX TMP DP RH WIND PRES REMARKS
 
BRADLEY INTL FAIR 38 25 59 NW12 30.14R WCI 30  
HARTFORD FAIR 41 22 46 NW12G22 30.15R  
BRIDGEPORT FAIR 41 30 65 W6 30.18R  
DANBURY MOCLDY 38 30 73 W7 30.18R  
GROTON FAIR 41 27 57 W12 30.14R  
NEW HAVEN FAIR 43 31 62 W8 30.18R  
CHESTER FAIR 39 25 56 W6G17 30.13R  
MERIDEN FAIR 40 24 53 NW15 30.17R WCI 32  
WILLIMANTIC FAIR 39 28 64 W9 30.13R  
OXFORD CLOUDY 38 27 64 NW7 30.16R  

 
 
MEZ002-015-021-024-NHZ003-005-008-011-012-014-VTZ005-008-181000-  
NORTHERN NEW ENGLAND  
 
CITY SKY/WX TMP DP RH WIND PRES REMARKS
 
PORTLAND ME MOCLDY 37 26 64 W13 29.98R WCI 29  
BANGOR ME FAIR 34 28 79 W8 29.85R WCI 27  
CONCORD NH FAIR 33 24 69 NW10G18 30.04R WCI 25  
MANCHESTER NH MOCLDY 37 26 64 W16G28 30.04R WCI 28  
NASHUA NH MOCLDY 32 30 92 W6 30.07R WCI 26  
PORTSMOUTH NH PTCLDY 36 24 62 W12G18 30.01R WCI 28  
JAFFREY NH FAIR 34 19 54 NW10 30.06R WCI 26  
KEENE NH FAIR 35 18 49 NW8G17 30.09R WCI 29  
BURLINGTON VT MOCLDY 35 20 54 NW17G26 30.13R WCI 25  
MT. WASHINGTON SNOW 9 9 100 NW62G76 N/A VSB 1/16WCI -21  

 
 
NYZ052-076-181000-  
EASTERN NEW YORK  
 
CITY SKY/WX TMP DP RH WIND PRES REMARKS
 
ALBANY FAIR 35 20 54 NW10 30.21R WCI 27  
NEW YORK CITY FAIR 46 29 51 NW15 30.22R  

 
 
ANZALL-181000-  
MARINE OBSERVATIONS  
 
STATION/POSITION TIME TEMP WIND PRES VSBY WAVE
 
AIR SEA DIR/SP/G HT/PER  
(UTC) (F) (DEG/KT/KT) (MB) (MI) (FT/S)  
BOSTON BUOY 0850 42 58 290/ 23/ 29 1016.3R 4/ 4  
BUZZARDS BAY 0800 45 300/ 30/ 33 1018.3R  
NANTUCKET SOUND 0850 46 62 310/ 27/ 35 1017.3R 4/ 4  
MASS BAY-STELLWA 0804 42 57 300/ 23/ 27 1015.0R 1 7/8 3/ 4  
ISLE OF SHOALS 0800 39 280/ 23/ 26 1014.7R  
S OF BLOCK IS 0843 63 N/A 8/ 7  

 
   
.....................KEY......................
 
 
SKY/WX - SKY CONDITION/PRESENT WEATHER  
TMP - TEMPERATURE IN FAHRENHEIT  
DWPT - DEWPOINT IN FAHRENHEIT  
RH - RELATIVE HUMIDITY IN PERCENT  
WIND - DIRECTION AND SPEED IN MPH  
PRES - MEAN SEA LEVEL PRESSURE IN INCHES OF HG  
WCI - WIND CHILL INDEX  
VSB - VISIBILITY IN MILES  
HX - HEAT INDEX  
TC - TEMPERATURE IN CELSIUS  
VRB - VARIABLE WIND DIRECTION  
N/A - NOT AVAILABLE  
 
 
CLICK HERE TO GO TO PREVIOUS BULLETINS.

The Nexlab MA Page
The Nexlab RI Page
The Nexlab NH Page
The Nexlab CT Page Main Text Page